Regional Weather Roundup
Issued by NWS

Home | Current Version | Previous Version | Text Only | Print | Product List | Glossary Off
Versions: 1 2 3 4 5 6 7 8 9 10 11 12 13 14 15 16 17 18 19 20 21 22 23 24 25 26 27 28 29 30 31 32

000
ASUS45 KGTF 061710
RWRMT
MONTANA HOURLY WEATHER ROUNDUP
NATIONAL WEATHER SERVICE GREAT FALLS MT
1100 AM MDT WED MAY 06 2015

NOTE: "FAIR" INDICATES FEW OR NO CLOUDS BELOW 12000 FEET WITH NO
SIGNIFICANT WEATHER AND/OR OBSTRUCTIONS TO VISIBILITY.

MTZ001>007-043-061800-
WEST OF THE DIVIDE

CITY           SKY/WX    TMP DP  RH WIND       PRES   REMARKS
KALISPELL      SUNNY     52  27  38 VRB3      29.94F
MISSOULA       MOSUNNY   52  28  39 VRB6      29.94F
BUTTE          SUNNY     45  22  40 NW7       29.91F
DEER LODGE       N/A     48  23  37 NE3       29.95F
EUREKA           N/A     54  25  32 SE5       29.95F
HAMILTON         N/A     50  23  34 N10       29.92F
LIBBY            N/A     54  27  35 W3        29.96F
$$

MTZ008-052>055-061800-
SOUTHWEST MONTANA

CITY           SKY/WX    TMP DP  RH WIND       PRES   REMARKS
BOZEMAN        CLOUDY    46  34  62 CALM      29.91F
DILLON         PTSUNNY   48  35  60 VRB7      29.88F
$$

MTZ009-010-012-014-046-048-049-054-061800-
EAST SLOPES AND CENTRAL MONTANA

CITY           SKY/WX    TMP DP  RH WIND       PRES   REMARKS
CUT BANK       MOSUNNY   44  31  60 N14       29.96R
GREAT FALLS    MOSUNNY   49  33  54 N10       29.94S
MALMSTROM AFB  PTSUNNY   46  38  74 N5        29.95S
HELENA         MOSUNNY   52  29  41 NE8       29.92S
$$

MTZ011-013-016-021-045-047-050-051-061800-
NORTH CENTRAL MONTANA

CITY           SKY/WX    TMP DP  RH WIND       PRES   REMARKS
HAVRE          PTSUNNY   49  36  61 NW14G24   29.93R
LEWISTOWN      CLOUDY    48  34  58 NW10      29.92S
CHINOOK          N/A     48  37  66 W21G26    29.90R
FORT BENTON      N/A     48  36  61 W9        29.96S
$$

MTZ017>020-022>042-056>058-061-062-061800-
EASTERN PLAINS

CITY           SKY/WX    TMP DP  RH WIND       PRES   REMARKS
BAKER          LGT RAIN  56  32  40 S5        29.72S
BILLINGS       CLOUDY    50  32  50 N10       29.88R
GLASGOW        LGT RAIN  51  42  71 NW23      29.79R
JORDAN           N/A     48  43  82 NW23G29   29.80S
LIVINGSTON     CLOUDY    46  34  62 NW9       29.90S
MILES CITY     CLOUDY    54  44  69 NW20      29.76R
SIDNEY         CLOUDY    57  55  94 S12       29.71S
WOLF POINT     CLOUDY    61  47  59 N16       29.74R
BIG TIMBER       N/A     45  36  70 S3        29.91R
PLENTYWOOD       N/A     55  50  82 NW16      29.71F
POPLAR           N/A     57  48  72 NW14G21   29.73R
$$

REGIONAL REPORTS...DAKOTAS

CITY           SKY/WX    TMP DP  RH WIND       PRES   REMARKS
WILLISTON      RAIN      59  56  89 S7        29.71S FOG
MINOT          LGT RAIN  61  58  90 SE9       29.75S FOG
DICKINSON      LGT RAIN  59  54  83 S9        29.70F
BEACH          LGT RAIN  55  55 100 S7        29.72F
CROSBY         CLOUDY    64  55  72 S20G28    29.70S
WATFORD CITY   CLOUDY    59  57  94 S8        29.70S
BISMARCK       CLOUDY    60  59  96 SE15      29.73F FOG
GRAND FORKS    LGT RAIN  59  58  96 S13G20    29.88F FOG
FARGO          CLOUDY    63  58  83 SE21G28   29.87F
BUFFALO SD       N/A     57  55  93 S9        29.64F
RAPID CITY     CLOUDY    57  55  93 CALM      29.68F
$$

REGIONAL REPORTS...WYOMING/IDAHO/WASHINGTON

CITY           SKY/WX    TMP DP  RH WIND       PRES   REMARKS
GILLETTE       CLOUDY    51  47  86 NW17      29.72R
SHERIDAN       LGT RAIN  46  44  93 NW28G37   29.82R
BUFFALO WY     CLOUDY    50  44  80 N29G39    29.79R
CODY           CLOUDY    45  37  76 N18       29.85S
YELLOWSTONE LA   N/A     41  36  82 SE3       29.89S
IDAHO FALLS    PTSUNNY   53  35  50 S15       29.83F
SALMON         SUNNY     52  28  40 NW3       29.85F
BOISE          PTSUNNY   54  29  38 NW15      29.87F
SPOKANE        MOSUNNY   49  30  48 CALM      29.99S
$$

REGIONAL REPORTS...ALBERTA

CITY           SKY/WX    TMP DP  RH WIND       PRES   REMARKS
EDMONTON       LGT SNOW  30  28  93 NW16G22   29.98R VSB 5/8 WCI  19
CALGARY        PTSUNNY   43  25  49 N21G28    29.99R
LETHBRIDGE     PTSUNNY   46  32  57 NW12G20   29.99R
MEDICINE HAT   PTSUNNY   46  34  61 NW13G20   29.94R
$$

REGIONAL REPORTS...SASKATCHEWAN

CITY           SKY/WX    TMP DP  RH WIND       PRES   REMARKS
SWIFT CURRENT  CLOUDY    45  37  76 W24G33    29.81R
REGINA         CLOUDY    59  46  63 NW22      29.70R
SASKATOON      CLOUDY    46  45  93 NW3       29.75R
$$



USA.gov is the U.S. government's official web portal to all federal, state and local government web resources and services.